Hauptseite
METAR-TAF:

METAR-TAF

Flughäfen :

Dübendorf, Schweiz

Militärflugplatz Dübendorf

Breite: 47-23-55N, Länge: 8-38-53E, Höhe: 448 m

Beobachtung

Neuester Wetterbericht von vor 1 Stunde und 4 Minuten, um 00:50 UTC
Windstille
Temperatur 9°C
Luftfeuchtigkeit 93%
Luftdruck 1022 hPa
Sichtweite 10 km oder mehr
Aufgelockert bewölkt in der Höhe von 1200 ft
Durchbrochene Bewölkung in der Höhe von 3700 ft
Geschlossene Wolkendecke in der Höhe von 4700 ft

METAR: LSMD 200050Z AUTO 00000KT 9999NDV SCT012 BKN037 OVC047 09/08 Q1022 RMK

Zeit: 03:54 (01:54 UTC)


TAF: fehlend

Wetterbeobachtungen und Prognosen von mehr als 4000 Flughäfen (METAR und TAF Bericht).

Die verfügbaren Stationen werden durch gelbe und rote Markierungen auf der Karte dargestellt.

Führen Sie die Maus auf sie, um den Namen der Station zu sehen.

Darauf klicken, um die Beobachtung von Wetterbeobachtungen und Prognosen zu sehen.

Um die Karte zu ändern : klicken Sie auf den grünen Tasten mit einem schwarzen Kreuz Zum Vergrößern, auf den grünen Button mit einem Gedankenstrich zu verkleinern, oder auf die grünen Pfeile für benachbarte Karten.


METAR-TAF: